Wind_Speed
22 28 32 34 36 36 38 41 45 47 48 48 49 48 49 50 51 52 53 54 54 53 53 52 51 51 49 47 46 45 44 43 42 41 40 40 39 39 39 38 38 38 37 37
20 24 28 31 33 35 36 38 41 44 45 46 47 47 47 48 49 50 51 52 53 53 53 52 52 51 50 49 48 46 45 44 43 43 42 42 42 41 41 40 40 40 40 39
19 22 25 28 30 32 34 35 36 38 41 42 43 45 45 45 47 48 50 50 51 52 52 52 52 51 50 50 49 48 47 46 45 44 44 44 44 44 43 43 43 43 43 42
17 21 23 25 27 30 31 33 34 35 36 38 41 42 44 43 45 46 48 49 49 50 51 51 52 51 51 50 49 49 49 49 48 47 47 47 46 46 46 46 46 46 46 45
15 19 21 22 24 27 28 30 32 33 34 34 37 40 40 41 43 43 44 45 46 48 49 50 50 51 51 51 50 49 49 50 50 49 49 49 48 48 48 48 48 48 47 47
12 15 18 20 22 24 26 28 30 30 32 34 34 36 37 38 40 41 42 43 45 46 48 49 50 50 51 51 52 52 51 51 51 51 50 50 50 50 50 50 49 50 49 49
10 14 17 19 20 23 24 26 29 30 31 32 32 34 34 35 37 38 39 41 43 45 47 48 49 49 50 51 52 52 52 52 52 53 53 52 52 52 51 51 51 51 51 51
9 12 15 17 20 21 22 24 26 28 30 31 32 33 33 34 34 35 37 38 41 42 44 46 47 48 48 50 52 53 54 54 54 54 54 54 54 53 53 53 53 53 53 52
9 12 14 16 18 20 20 21 24 25 26 28 30 31 31 32 32 33 34 35 36 38 40 43 45 47 48 49 51 53 54 54 54 54 54 54 55 55 54 53 53 52 53 53
9 11 13 15 18 20 20 21 24 25 24 25 27 28 29 30 29 29 30 32 33 35 36 39 41 43 45 47 48 50 51 52 53 53 54 54 55 55 54 53 53 52 52 52
10 11 12 15 17 18 20 22 24 25 24 24 24 24 26 28 28 27 28 29 30 32 33 35 37 38 40 43 44 46 47 48 50 51 51 51 53 53 53 53 52 52 52 52
11 12 13 15 17 18 19 22 24 25 25 24 24 24 24 25 26 26 27 29 30 30 31 32 33 34 36 39 40 42 44 45 47 48 49 50 51 51 51 51 51 51 50 50
12 13 14 15 17 18 19 21 23 24 25 24 24 25 24 25 26 26 27 28 29 29 29 30 31 32 33 35 37 39 41 43 44 45 46 47 47 47 48 48 49 49 49 49
12 13 13 15 17 18 19 20 22 24 25 25 24 23 23 24 25 26 27 28 28 28 28 29 30 30 31 32 33 35 36 38 40 41 43 44 45 45 46 46 47 47 47 47
12 14 14 14 16 18 19 21 22 24 24 25 23 23 23 25 25 26 26 26 27 28 28 28 29 29 30 31 31 32 33 35 36 37 39 40 41 42 43 44 45 45 45 45
13 14 16 16 16 18 19 20 22 23 24 25 25 24 24 26 26 26 26 26 27 27 28 29 29 29 29 30 30 31 31 32 34 35 36 38 39 40 40 41 41 42 42 42
13 14 15 16 16 18 19 18 20 21 22 24 25 25 25 26 26 26 26 26 27 27 28 29 29 29 30 30 30 31 31 32 33 34 35 36 37 38 39 39 40 40 41 41
14 15 15 15 16 16 17 18 19 20 21 23 24 25 26 26 26 26 26 27 27 28 29 29 29 30 30 30 30 31 31 32 33 33 34 35 35 36 37 38 38 39 39 40
15 15 15 16 16 16 16 17 18 19 21 22 23 24 25 26 26 27 27 27 28 29 29 29 30 30 31 31 31 31 32 32 33 33 34 34 35 35 36 36 37 37 37 37
15 15 15 16 17 17 17 17 19 20 21 22 23 23 24 24 26 26 27 27 28 28 28 29 30 30 30 31 31 32 32 33 33 33 34 34 34 34 35 35 36 36 36 36
15 15 16 17 18 18 19 19 20 21 22 22 23 24 24 24 25 25 26 26 27 28 28 28 28 29 29 30 30 31 31 32 33 33 34 34 35 35 34 34 34 33 33 33
15 15 16 17 18 19 20 20 20 21 22 22 22 23 24 25 25 26 26 26 27 27 27 27 27 28 28 28 29 30 30 31 32 32 33 33 33 33 33 32 31 31 30 30
16 16 16 17 19 20 20 20 20 21 22 22 23 23 24 25 26 26 26 27 27 27 27 27 27 27 27 28 28 29 29 29 30 30 30 31 31 31 30 30 29 29 29 29
18 18 18 18 19 21 21 21 21 22 22 23 23 24 25 26 26 26 27 27 27 27 27 27 27 27 27 28 28 28 29 29 29 29 29 29 29 29 29 28 28 28 28 27
19 19 19 18 19 21 22 22 23 23 23 24 23 24 25 26 26 26 26 27 27 28 27 28 28 28 27 27 27 28 28 27 28 28 28 28 28 27 27 26 26 26 26 26
20 20 20 19 20 21 22 23 24 24 25 26 26 26 26 26 26 26 27 27 27 27 28 27 28 28 27 27 27 27 27 27 27 27 27 27 27 26 26 26 26 26 26 26
Wind_Direction
188 191 196 199 202 204 207 210 213 216 216 218 219 220 222 223 225 226 226 227 228 229 231 231 233 234 236 238 240 242 244 245 246 248 249 251 252 254 256 259 261 264 266 269
183 188 194 198 201 204 206 210 214 218 219 220 221 222 223 224 225 227 227 228 230 230 232 233 233 235 237 238 240 242 244 246 247 248 250 252 253 255 257 260 262 265 267 270
183 187 192 199 202 205 207 211 213 218 221 224 225 225 225 226 226 227 228 228 230 232 233 235 235 235 238 239 240 242 244 246 248 249 250 252 255 257 258 260 262 265 267 270
185 187 190 196 201 204 208 212 214 218 222 226 227 229 228 229 228 227 229 231 232 234 235 236 237 238 238 240 241 242 244 245 247 250 251 252 255 258 259 261 263 266 268 270
182 187 191 196 201 204 209 211 215 219 223 227 229 232 230 233 232 230 230 232 233 235 236 237 239 240 241 241 242 243 245 247 248 250 252 254 255 258 260 262 264 266 267 270
181 186 191 197 206 209 210 212 216 220 223 227 229 233 232 235 235 233 233 235 236 236 237 238 239 240 241 243 243 244 245 247 249 251 252 254 256 258 259 262 264 266 268 271
188 191 193 199 205 205 208 213 216 220 225 228 229 233 233 235 237 236 236 237 238 239 240 241 241 241 242 244 245 246 246 248 250 252 253 256 257 259 260 262 265 268 269 271
202 205 203 206 205 205 210 215 219 225 229 231 233 236 235 236 238 239 239 239 240 241 242 242 242 243 244 245 245 246 248 250 251 253 254 256 258 260 262 264 266 268 269 271
217 212 208 210 212 213 215 218 221 226 232 235 236 237 238 239 239 242 243 242 243 244 244 245 245 244 245 246 246 247 249 250 252 254 255 257 259 261 263 265 266 267 269 270
229 225 222 222 222 222 223 222 221 223 228 233 239 241 243 241 242 244 244 244 245 246 246 247 247 247 247 248 249 249 249 251 252 254 256 257 259 261 262 264 266 267 268 270
235 232 231 233 231 228 226 225 226 228 230 235 240 244 244 245 245 245 245 245 246 246 247 248 248 249 249 248 249 250 250 251 252 254 256 258 259 260 262 264 265 267 268 270
241 245 244 241 239 235 231 229 231 232 235 237 239 242 244 247 248 248 247 247 248 247 248 249 250 250 250 250 250 250 249 250 252 253 255 257 259 260 262 264 265 267 268 270
253 251 251 247 244 241 237 233 234 237 239 240 241 244 246 249 249 248 248 248 247 248 248 249 250 251 251 251 251 251 251 251 252 253 255 256 258 260 262 264 266 267 269 270
262 257 256 253 248 246 241 236 238 241 243 244 244 245 247 249 249 248 248 248 248 249 250 251 252 253 252 253 253 253 254 254 255 256 257 259 260 261 263 265 266 268 269 270
265 260 258 257 253 248 245 241 242 244 245 247 245 245 245 248 249 249 250 250 250 251 252 253 253 254 254 254 254 255 256 257 258 259 260 261 262 263 264 266 267 269 270 271
273 266 263 262 260 252 249 245 246 247 247 249 248 247 247 250 250 250 250 251 251 251 252 254 254 254 255 255 256 257 258 259 259 260 262 263 264 265 266 268 269 270 271 272
280 272 267 265 264 259 256 254 253 252 250 250 251 251 251 252 252 252 252 252 252 252 254 256 256 256 256 257 258 260 261 261 262 262 263 265 266 267 268 269 270 271 272 273
286 279 274 271 270 270 263 258 258 256 254 253 254 255 256 255 255 254 254 254 253 254 255 255 256 257 258 259 260 261 262 262 263 263 264 265 267 268 269 270 271 272 273 273
290 282 279 276 276 276 269 265 262 260 257 255 255 257 257 256 254 255 255 255 255 256 256 256 257 257 258 259 259 260 261 262 263 264 265 267 268 269 270 271 271 272 273 274
294 285 280 277 276 279 273 269 266 265 263 258 257 258 256 255 255 256 255 255 255 256 257 257 257 257 258 258 259 260 261 262 263 264 265 267 268 270 271 272 273 273 274 274
302 291 283 279 278 278 277 273 269 267 267 264 263 261 259 257 258 257 256 256 257 257 257 257 258 258 258 259 260 260 261 262 262 263 265 266 267 268 270 271 272 272 272 272
310 297 287 281 281 281 279 277 273 270 268 266 264 263 262 261 260 258 257 257 257 258 258 258 258 259 260 260 261 261 262 262 263 264 265 266 267 267 268 270 270 270 271 272
317 304 292 284 282 280 280 279 276 272 269 267 264 262 262 262 261 259 258 258 258 257 257 258 259 259 261 262 263 263 262 263 263 264 265 265 266 267 268 269 270 270 271 271
322 313 300 290 283 281 279 279 278 274 271 269 267 265 264 263 262 260 259 258 258 257 257 258 259 260 261 262 262 263 263 263 263 264 265 266 266 267 267 268 269 270 270 270
324 318 307 295 285 281 281 280 279 276 273 272 269 266 265 265 263 262 260 258 258 257 257 258 259 259 261 261 262 262 262 263 263 263 263 264 266 266 266 267 269 270 270 270
327 320 312 303 294 286 284 283 282 278 274 274 272 269 267 266 264 263 262 260 260 258 258 259 259 259 260 261 262 263 263 263 264 264 263 263 265 265 267 268 269 270 271 271
Height
5620 5627 5634 5641 5648 5656 5663 5670 5676 5683 5690 5697 5704 5711 5717 5722 5729 5737 5744 5751 5758 5764 5770 5777 5783 5788 5794 5799 5803 5807 5811 5814 5818 5821 5823 5826 5828 5830 5832 5834 5836 5837 5839 5839
5623 5628 5633 5639 5645 5652 5658 5665 5672 5679 5685 5692 5698 5705 5711 5716 5723 5730 5737 5744 5751 5757 5763 5769 5776 5781 5786 5791 5796 5800 5803 5807 5810 5813 5816 5818 5820 5823 5825 5827 5828 5830 5831 5832
5624 5629 5633 5639 5644 5650 5656 5663 5669 5675 5681 5687 5693 5699 5705 5711 5717 5724 5730 5737 5743 5749 5756 5762 5768 5773 5778 5783 5788 5792 5795 5799 5802 5805 5808 5810 5813 5815 5817 5819 5820 5821 5822 5823
5625 5630 5634 5639 5644 5649 5655 5661 5667 5672 5678 5683 5689 5694 5701 5706 5712 5718 5724 5730 5736 5742 5748 5753 5759 5765 5770 5774 5779 5783 5787 5790 5793 5796 5799 5802 5804 5807 5809 5810 5811 5813 5814 5814
5628 5631 5635 5639 5643 5648 5653 5659 5665 5670 5675 5679 5684 5689 5697 5700 5706 5712 5718 5724 5729 5735 5740 5745 5751 5756 5761 5766 5770 5774 5778 5781 5784 5787 5790 5793 5795 5797 5799 5801 5802 5803 5804 5805
5630 5633 5636 5639 5643 5647 5652 5658 5662 5666 5670 5675 5681 5685 5692 5695 5701 5707 5712 5717 5722 5727 5731 5736 5741 5747 5752 5756 5761 5765 5769 5772 5775 5778 5780 5783 5786 5788 5789 5791 5793 5794 5795 5795
5632 5634 5637 5640 5643 5647 5651 5656 5660 5663 5666 5672 5677 5680 5687 5691 5696 5701 5706 5710 5714 5719 5723 5727 5732 5738 5743 5747 5751 5754 5758 5762 5765 5768 5771 5773 5776 5778 5779 5781 5782 5783 5784 5785
5633 5636 5637 5640 5643 5646 5649 5654 5658 5662 5665 5669 5673 5676 5682 5686 5690 5694 5699 5703 5707 5711 5715 5719 5724 5729 5733 5737 5741 5744 5748 5752 5755 5758 5760 5763 5765 5767 5768 5770 5771 5773 5773 5774
5634 5636 5637 5639 5641 5645 5648 5651 5655 5658 5661 5665 5668 5673 5677 5680 5684 5688 5692 5696 5699 5703 5707 5711 5715 5720 5724 5727 5730 5734 5738 5741 5744 5747 5749 5752 5753 5755 5757 5758 5759 5761 5762 5762
5634 5636 5637 5639 5641 5643 5646 5649 5652 5655 5658 5661 5665 5668 5672 5675 5679 5683 5686 5689 5692 5696 5699 5702 5706 5710 5714 5717 5720 5723 5727 5730 5733 5735 5738 5740 5742 5743 5745 5747 5748 5749 5750 5750
5633 5635 5636 5638 5639 5641 5644 5646 5648 5651 5654 5657 5661 5666 5666 5669 5673 5676 5679 5682 5685 5689 5692 5695 5697 5701 5704 5707 5710 5713 5716 5719 5722 5724 5726 5728 5730 5732 5733 5735 5736 5737 5738 5738
5632 5634 5634 5636 5637 5638 5640 5643 5645 5648 5650 5653 5656 5662 5661 5664 5667 5670 5673 5676 5679 5682 5685 5687 5690 5693 5696 5698 5701 5704 5706 5709 5711 5713 5715 5717 5719 5720 5722 5723 5724 5725 5726 5726
5631 5632 5632 5634 5636 5636 5637 5639 5641 5643 5645 5648 5651 5657 5656 5659 5661 5664 5667 5669 5672 5675 5678 5680 5682 5685 5687 5690 5692 5694 5696 5698 5700 5702 5704 5706 5707 5709 5710 5711 5712 5713 5714 5714
5628 5629 5630 5631 5631 5632 5634 5636 5637 5639 5640 5643 5647 5650 5652 5653 5655 5658 5660 5663 5666 5669 5671 5673 5675 5677 5679 5681 5683 5685 5687 5689 5690 5692 5694 5695 5697 5698 5699 5700 5701 5702 5702 5703
5625 5626 5626 5627 5627 5628 5629 5631 5633 5634 5636 5638 5642 5644 5646 5647 5649 5652 5654 5657 5659 5662 5664 5666 5668 5669 5671 5673 5675 5677 5678 5680 5681 5682 5684 5685 5686 5687 5688 5689 5689 5690 5690 5691
5622 5622 5622 5623 5623 5624 5625 5627 5628 5629 5631 5633 5635 5639 5640 5641 5643 5646 5648 5650 5652 5654 5656 5658 5660 5661 5663 5665 5666 5668 5669 5671 5672 5673 5674 5675 5676 5677 5677 5678 5678 5679 5679 5679
5619 5618 5618 5619 5619 5619 5621 5623 5623 5624 5626 5628 5629 5633 5633 5635 5637 5639 5641 5643 5645 5647 5649 5650 5652 5653 5655 5657 5658 5660 5661 5662 5663 5664 5665 5665 5666 5667 5667 5668 5668 5668 5668 5668
5615 5615 5614 5614 5616 5616 5619 5618 5618 5619 5620 5622 5623 5625 5627 5629 5631 5632 5634 5636 5637 5639 5641 5642 5644 5645 5647 5648 5650 5651 5652 5653 5654 5655 5655 5656 5656 5657 5657 5657 5658 5658 5658 5658
5612 5611 5611 5611 5611 5612 5613 5613 5613 5614 5615 5617 5618 5619 5620 5622 5623 5625 5627 5628 5630 5631 5632 5634 5635 5637 5638 5640 5641 5642 5643 5644 5644 5645 5646 5646 5647 5647 5647 5647 5647 5647 5647 5647
5608 5608 5608 5607 5607 5608 5609 5609 5608 5610 5610 5611 5612 5613 5614 5615 5617 5619 5619 5620 5621 5623 5624 5625 5626 5628 5629 5630 5631 5632 5633 5634 5635 5636 5636 5637 5637 5637 5637 5637 5637 5637 5637 5637
5605 5604 5604 5603 5603 5603 5604 5603 5604 5605 5606 5605 5605 5606 5607 5608 5610 5611 5611 5612 5614 5615 5616 5617 5618 5619 5620 5621 5622 5623 5624 5625 5626 5626 5627 5627 5628 5628 5628 5628 5628 5628 5627 5627
5602 5601 5600 5599 5599 5601 5598 5598 5599 5599 5598 5598 5599 5599 5600 5601 5602 5603 5604 5605 5606 5607 5608 5609 5610 5611 5612 5613 5614 5614 5615 5616 5617 5617 5617 5618 5618 5618 5618 5618 5618 5618 5618 5618
5599 5598 5596 5596 5596 5593 5593 5592 5592 5592 5592 5592 5592 5593 5593 5594 5594 5595 5596 5597 5598 5599 5600 5601 5602 5603 5604 5604 5605 5606 5606 5607 5607 5608 5608 5608 5609 5609 5609 5610 5610 5610 5610 5610
5595 5593 5591 5590 5590 5588 5587 5587 5586 5586 5586 5586 5586 5586 5586 5587 5587 5588 5588 5589 5590 5590 5592 5593 5594 5595 5595 5596 5597 5597 5598 5598 5599 5599 5600 5600 5600 5601 5601 5601 5601 5601 5601 5601
5592 5589 5587 5585 5584 5583 5582 5581 5580 5580 5579 5579 5579 5579 5579 5579 5579 5579 5580 5581 5582 5582 5583 5584 5585 5586 5587 5588 5588 5589 5589 5590 5590 5591 5591 5592 5592 5592 5593 5593 5593 5593 5593 5593
5588 5586 5583 5581 5579 5578 5577 5575 5574 5573 5572 5572 5572 5571 5571 5571 5571 5571 5572 5573 5573 5574 5575 5576 5577 5578 5579 5579 5580 5580 5581 5581 5582 5582 5583 5583 5584 5584 5584 5585 5585 5585 5585 5585